Weather Roundup
Issued by NWS Springfield, MO

Home | Current Version | Previous Version | Text Only | Print | Product List | Glossary On
Versions: 1 2 3 4 5 6 7 8 9 10 11 12 13 14 15 16 17 18 19 20 21 22 23 24 25 26 27 28 29 30 31 32 33 34 35 36 37 38 39 40 41 42 43 44 45 46 47 48 49 50
000
NZUS99 KSGF 170657
HRRSGF

HOURLY WEATHER
NATIONAL WEATHER SERVICE SPRINGFIELD MO
100 AM CST SUN DEC 17 2017

......SGF CWA......

CITY           SKY/WX    TMP DP  RH WIND       PRES   REMARKS
SPRINGFIELD    CLOUDY    48  28  46 S10       30.02R
JOPLIN         RAIN      43  42  97 S8        30.05R FOG
WEST PLAINS    CLOUDY    44  28  53 S8        30.07S
ROLLA          CLOUDY    45  29  53 S10       30.03F

......SURROUNDING SGF CWA......

CITY           SKY/WX    TMP DP  RH WIND       PRES   REMARKS
CHANUTE        LGT RAIN  45  42  89 S13       30.01S
PARSONS        RAIN      44  43  96 S8        30.03R FOG
COFFEYVILLE    RAIN      44  43  96 S8        30.03S FOG
EMPORIA        LGT RAIN  44  37  76 S12       29.96S
HARRISON AR    RAIN      41  39  93 SE9       30.07S

......KANSAS AND MISSOURI......

CITY           SKY/WX    TMP DP  RH WIND       PRES   REMARKS
KANSAS CTY INT CLOUDY    47  27  45 S12       29.96S
SEDALIA        MOCLDY    49  28  44 S9        30.00F
ST JOSEPH      CLOUDY    37  31  78 S3        29.96F
ST LOUIS       CLOUDY    46  29  51 S7        30.08R
WICHITA        CLOUDY    45  42  89 S13       29.91F
TOPEKA         MOCLDY    42  32  67 E3        29.96S
OLATHE         MOCLDY    42  28  57 S5        29.97F

......TENNESSEE......

CITY           SKY/WX    TMP DP  RH WIND       PRES   REMARKS
MEMPHIS        NOT AVBL
NASHVILLE      CLOUDY    42  31  64 E7        30.20F

......ARKANSAS.......

CITY           SKY/WX    TMP DP  RH WIND       PRES   REMARKS
FAYETTEVILLE   RAIN      42  42 100 S7        30.06S FOG
FT SMITH       RAIN      45  44  97 E3        30.09F FOG
LITTLE ROCK    RAIN      43  43 100 S5        30.14F FOG

......OKLAHOMA.......

CITY           SKY/WX    TMP DP  RH WIND       PRES   REMARKS
TULSA          CLOUDY    45  43  93 S13       30.04F
PONCA CITY     CLOUDY    45  41  86 S9G20     29.97F FOG
MCALESTER      CLOUDY    45  42  89 SW6       30.03R
OKLAHOMA CITY  CLOUDY    42  41  96 S17       29.97F

......IOWA............

CITY           SKY/WX    TMP DP  RH WIND       PRES   REMARKS
DES MOINES     NOT AVBL
QUAD CITIES    CLOUDY    27  22  81 E3        30.02R

......ILLINOIS........

CITY           SKY/WX    TMP DP  RH WIND       PRES   REMARKS
QUINCY         NOT AVBL
CHICAGO        CLOUDY    32  30  92 N6        30.05R WCI  26



USA.gov is the U.S. government's official web portal to all federal, state and local government web resources and services.